Location: Presov
(49.0000°N, 21.2500°E)
Time: 06:02:47
(UTC+02:00)

Transit 2A Rocket - Pass Details

Date: 17 April 2021
Orbit: 594 x 909 km, 66.7° (Epoch: 07 May)

Event Time Altitude Azimuth Distance (km) Brightness Sun altitude
Rises 23:33:38 0° 329° (NNW) 2,853 9.1 -28.7°
Reaches altitude 10° 23:36:08 10° 342° (NNW) 1,965 8.1 -28.8°
Maximum altitude 23:39:54 27° 41° (NE) 1,210 6.3 -29.0°
Enters shadow 23:40:01 27° 43° (NE) 1,212 6.3 -29.0°
Drops below altitude 10° 23:43:50 10° 99° (E) 2,058 - -29.2°
Sets 23:46:31 0° 112° (ESE) 3,017 - -29.3°
